Terug naar catalogus

STARLINK-34678

ActiefCommunicatieSSO
NORAD 65443·PAYLOAD·🇺🇸 United States

Gelanceerd Sep 3, 2025 vanaf Vandenberg Space Force Base

Loading…

Volgende Passages (komende 24 uur)

TLE

VersSource: CelesTrak SupGP

Epoch: Sep 14, 2026, 22:45 UTC

1 65443C 25194K   26257.94840278  .00101670  00000+0  31576-2 0  2572
2 65443  97.2848 107.6492 0001732  93.7973 340.1528 15.33371772    15

Volg STARLINK-34678 in realtime met AllMySat

Download on the App Store